Location: ????????
(60.4333°N, 46.4710°E)
Time: 04:38:56
(UTC+00:00)

Cosmos 1939 Rocket - Pass Details

Date: 25 November 2020
Orbit: 532 x 584 km, 97.4° (Epoch: 19 January)

Event Time Altitude Azimuth Distance (km) Brightness Sun altitude
Rises 14:33:17 0° 162° (SSE) 2,679 6.3 -17.1°
Reaches altitude 10° 14:35:22 10° 162° (SSE) 1,796 5.4 -17.4°
Maximum altitude 14:39:15 90° 93° (E) 550 2.7 -17.8°
Drops below altitude 10° 14:43:13 10° 344° (NNW) 1,832 5.5 -18.3°
Sets 14:45:22 0° 345° (NNW) 2,739 6.5 -18.6°
